Date String (YYYY-MM-DD hh:mm:ss) UTC,Instrument flags,absolute air pressure of the measurement (hPa),sample flow rate (lpm),inlet stack bypass flow (lpm),air temperature of the measurement (°C),ambient temperature measured by the external sensor (°C),aerosol sample conditioner tube jacket temperature (°C),OPC LED temperature (°C),internal box temperature (°C),relative humidity of the measurement (%),span deviation,mass concentration of particles derived from Lorenz-Mie calculation of OPC scattering (μg/m³),mass concentration of particles derived from Lorenz-Mie calculation of OPC scattering (μg/m³),mass concentration of particles derived from Lorenz-Mie calculation of OPC scattering (μg/m³)
DateTimeUTC,F1_M11,P_M11,Q1_M11,Q2_M11,T1_M11,T2_M11,T3_M11,T4_M11,T5_M11,U1_M11,ZSPAN_M11,X2_M11,X0_M11,X1_M11
2024-06-02 13:00:00,SystemResetWarning,0825.3,5.00,000.00,029.8,029.1,000.0,038.2,031.5,018.7,0000.0,0003.95,0010.11,0003.35
2024-06-02 13:01:00,SystemResetWarning,0825.3,5.01,000.00,029.8,029.1,000.0,038.2,031.5,018.7,0000.0,0003.94,0010.62,0003.33
2024-06-02 13:02:00,SystemResetWarning,0825.3,5.00,000.00,029.9,029.1,000.0,038.2,031.6,018.9,0000.0,0003.93,0011.14,0003.33
2024-06-02 13:03:00,SystemResetWarning,0825.3,5.00,000.00,029.9,029.1,000.0,038.2,031.6,018.5,0000.0,0003.94,0010.62,0003.31
2024-06-02 13:04:00,SystemResetWarning,0825.3,5.00,000.00,029.9,029.1,000.0,038.2,031.6,018.7,0000.0,0003.92,0010.66,0003.29
2024-06-02 13:05:00,SystemResetWarning,0825.3,4.99,000.00,029.9,029.1,000.0,038.2,031.6,018.7,0000.0,0003.93,0010.64,0003.27
2024-06-02 13:06:00,SystemResetWarning,0825.3,5.00,000.00,029.9,029.1,000.0,038.2,031.6,018.7,0000.0,0003.92,0010.58,0003.25
2024-06-02 13:07:00,SystemResetWarning,0825.3,5.01,000.00,029.9,029.1,000.0,038.2,031.6,019.1,0000.0,0003.89,0010.50,0003.23
2024-06-02 13:08:00,SystemResetWarning,0825.3,5.00,000.00,029.9,029.2,000.0,038.2,031.6,019.1,0000.0,0003.87,0010.42,0003.21
2024-06-02 13:09:00,SystemResetWarning,0825.3,5.01,000.00,029.9,029.2,000.0,038.3,031.6,018.6,0000.0,0003.87,0010.47,0003.19
2024-06-02 13:10:00,SystemResetWarning,0825.3,5.00,000.00,029.9,029.2,000.0,038.3,031.6,018.8,0000.0,0003.87,0010.46,0003.16
2024-06-02 13:11:00,SystemResetWarning,0825.3,5.00,000.00,029.9,029.2,000.0,038.3,031.6,018.5,0000.0,0003.85,0010.46,0003.14
2024-06-02 13:12:00,SystemResetWarning,0825.3,5.00,000.00,029.9,029.2,000.0,038.3,031.6,018.8,0000.0,0003.78,0009.94,0003.11
2024-06-02 13:13:00,SystemResetWarning,0825.3,5.00,000.00,029.9,029.2,000.0,038.3,031.6,018.4,0000.0,0003.79,0008.97,0003.10
2024-06-02 13:14:00,SystemResetWarning,0825.3,5.00,000.00,029.9,029.2,000.0,038.3,031.6,018.5,0000.0,0003.77,0008.45,0003.09
2024-06-02 13:15:00,SystemResetWarning,0825.3,5.00,000.00,029.9,029.2,000.0,038.3,031.6,018.7,0000.0,0003.74,0008.82,0003.07
2024-06-02 13:16:00,SystemResetWarning,0825.3,4.99,000.00,029.9,029.2,000.0,038.3,031.6,018.7,0000.0,0003.73,0008.91,0003.05
2024-06-02 13:17:00,SystemResetWarning,0825.3,5.00,000.00,029.9,029.2,000.0,038.3,031.7,018.6,0000.0,0003.69,0009.35,0003.02
2024-06-02 13:18:00,SystemResetWarning,0825.3,5.01,000.00,029.9,029.2,000.0,038.3,031.7,018.6,0000.0,0003.67,0009.31,0002.99
2024-06-02 13:19:00,SystemResetWarning,0825.3,5.01,000.00,029.9,029.2,000.0,038.3,031.7,018.5,0000.0,0003.65,0009.89,0002.98
2024-06-02 13:20:00,SystemResetWarning,0825.3,5.00,000.00,030.0,029.2,000.0,038.3,031.7,018.4,0000.0,0003.61,0009.78,0002.97
2024-06-02 13:21:00,SystemResetWarning,0825.2,5.00,000.00,030.0,029.2,000.0,038.3,031.7,018.8,0000.0,0003.59,0009.67,0002.95
2024-06-02 13:22:00,SystemResetWarning,0825.3,4.99,000.00,030.0,029.2,000.0,038.3,031.7,018.7,0000.0,0003.60,0009.65,0002.94
2024-06-02 13:23:00,SystemResetWarning,0825.3,5.00,000.00,030.0,029.3,000.0,038.3,031.7,020.0,0000.0,0003.62,0009.34,0002.97
2024-06-02 13:24:00,SystemResetWarning,0825.3,4.99,000.00,030.0,029.3,000.0,038.3,031.7,020.1,0000.0,0003.60,0009.23,0002.98
2024-06-02 13:25:00,SystemResetWarning,0825.2,5.00,000.00,030.0,029.3,000.0,038.3,031.7,019.3,0000.0,0003.60,0008.98,0002.99
2024-06-02 13:26:00,SystemResetWarning,0825.2,5.01,000.00,030.0,029.3,000.0,038.4,031.7,019.5,0000.0,0003.57,0008.45,0002.99
2024-06-02 13:27:00,SystemResetWarning,0825.2,5.01,000.00,030.0,029.3,000.0,038.4,031.7,019.6,0000.0,0003.56,0008.30,0003.00
2024-06-02 13:28:00,SystemResetWarning,0825.3,5.01,000.00,030.0,029.3,000.0,038.4,031.7,019.4,0000.0,0003.58,0007.74,0003.00
2024-06-02 13:29:00,SystemResetWarning,0825.2,5.00,000.00,030.1,029.3,000.0,038.4,031.8,020.0,0000.0,0003.60,0007.55,0003.01
2024-06-02 13:30:00,SystemResetWarning,0825.2,5.00,000.00,030.1,029.3,000.0,038.4,031.8,019.6,0000.0,0003.61,0006.64,0003.00
2024-06-02 13:31:00,SystemResetWarning,0825.3,4.99,000.00,030.1,029.4,000.0,038.4,031.8,022.7,0000.0,0003.63,0006.74,0003.00
2024-06-02 13:32:00,SystemResetWarning,0825.3,4.99,000.00,030.1,029.4,000.0,038.4,031.8,022.5,0000.0,0003.70,0007.56,0003.03
2024-06-02 13:33:00,SystemResetWarning,0825.2,4.99,000.00,030.1,029.4,000.0,038.4,031.8,023.1,0000.0,0003.71,0008.42,0003.05
2024-06-02 13:34:00,SystemResetWarning,0825.3,5.00,000.00,030.1,029.4,000.0,038.4,031.8,022.7,0000.0,0003.74,0009.60,0003.08
2024-06-02 13:35:00,SystemResetWarning,0825.3,5.00,000.00,030.1,029.4,000.0,038.4,031.8,022.4,0000.0,0003.75,0010.55,0003.09
2024-06-02 13:36:00,SystemResetWarning,0825.3,5.01,000.00,030.1,029.4,000.0,038.4,031.8,023.0,0000.0,0003.82,0010.70,0003.10
2024-06-02 13:37:00,SystemResetWarning,0825.3,5.00,000.00,030.1,029.4,000.0,038.5,031.8,022.9,0000.0,0003.86,0011.40,0003.12
2024-06-02 13:38:00,SystemResetWarning,0825.3,5.00,000.00,030.1,029.4,000.0,038.5,031.8,022.1,0000.0,0003.87,0011.50,0003.14
2024-06-02 13:39:00,SystemResetWarning,0825.3,5.00,000.00,030.1,029.4,000.0,038.5,031.9,021.7,0000.0,0003.88,0011.67,0003.16
2024-06-02 13:40:00,SystemResetWarning,0825.3,5.00,000.00,030.2,029.4,000.0,038.5,031.9,020.9,0000.0,0003.91,0011.95,0003.17
2024-06-02 13:41:00,SystemResetWarning,0825.3,5.00,000.00,030.2,029.5,000.0,038.5,031.9,021.0,0000.0,0003.93,0012.13,0003.19
2024-06-02 13:42:00,SystemResetWarning,0825.4,5.00,000.00,030.2,029.5,000.0,038.5,031.9,020.5,0000.0,0003.96,0012.26,0003.20
2024-06-02 13:43:00,SystemResetWarning,0825.3,5.00,000.00,030.2,029.5,000.0,038.5,031.9,020.8,0000.0,0003.89,0011.82,0003.19
2024-06-02 13:44:00,SystemResetWarning,0825.3,5.00,000.00,030.2,029.5,000.0,038.5,031.9,020.6,0000.0,0003.85,0010.94,0003.19
2024-06-02 13:45:00,SystemResetWarning,0825.4,5.00,000.00,030.2,029.5,000.0,038.5,031.9,019.9,0000.0,0003.86,0009.98,0003.18
2024-06-02 13:46:00,SystemResetWarning,0825.4,5.01,000.00,030.2,029.5,000.0,038.5,031.9,021.5,0000.0,0003.90,0009.42,0003.19
2024-06-02 13:47:00,SystemResetWarning,0825.4,5.01,000.00,030.2,029.5,000.0,038.6,031.9,021.8,0000.0,0003.87,0009.41,0003.19
2024-06-02 13:48:00,SystemResetWarning,0825.4,5.00,000.00,030.2,029.5,000.0,038.6,031.9,021.0,0000.0,0003.86,0008.86,0003.19
2024-06-02 13:49:00,SystemResetWarning,0825.4,5.00,000.00,030.3,029.6,000.0,038.6,032.0,020.9,0000.0,0003.91,0008.79,0003.18
2024-06-02 13:50:00,SystemResetWarning,0825.3,5.00,000.00,030.3,029.6,000.0,038.6,032.0,020.7,0000.0,0003.91,0008.64,0003.17
2024-06-02 13:51:00,SystemResetWarning,0825.3,5.01,000.00,030.3,029.6,000.0,038.6,032.0,020.7,0000.0,0003.91,0008.53,0003.16
2024-06-02 13:52:00,SystemResetWarning,0825.4,5.00,000.00,030.3,029.6,000.0,038.6,032.0,019.6,0000.0,0003.87,0008.27,0003.16
2024-06-02 13:53:00,SystemResetWarning,0825.3,5.00,000.00,030.3,029.6,000.0,038.6,032.0,019.4,0000.0,0003.83,0008.12,0003.16
2024-06-02 13:54:00,SystemResetWarning,0825.4,4.99,000.00,030.3,029.6,000.0,038.6,032.0,019.9,0000.0,0003.86,0008.28,0003.16
2024-06-02 13:55:00,SystemResetWarning,0825.4,5.00,000.00,030.3,029.6,000.0,038.6,032.0,020.3,0000.0,0003.88,0008.44,0003.16
2024-06-02 13:56:00,SystemResetWarning,0825.3,5.01,000.00,030.3,029.6,000.0,038.7,032.0,020.5,0000.0,0003.85,0008.18,0003.15
2024-06-02 13:57:00,SystemResetWarning,0825.4,5.00,000.00,030.4,029.6,000.0,038.7,032.0,020.1,0000.0,0003.83,0007.93,0003.14
2024-06-02 13:58:00,SystemResetWarning,0825.4,5.00,000.00,030.4,029.6,000.0,038.7,032.0,020.1,0000.0,0003.81,0007.72,0003.13
2024-06-02 13:59:00,SystemResetWarning,0825.4,5.00,000.00,030.4,029.6,000.0,038.7,032.1,019.1,0000.0,0003.83,0007.97,0003.12
